Dodge City, KS

4:55 AM CDT on April 23, 2018 (GMT -0500)
Dodge City Regional

Weather History for KDDC - April, 2014

Change the Weather History Date:

Tuesday, April 8, 2014

  Actual Average Record
Temperature  
Mean Temperature 48 °F -  
Max Temperature 66 °F 64 °F 88 °F (1977)
Min Temperature 30 °F 39 °F 16 °F (1914)
Degree Days  
Heating Degree Days 17    
Moisture  
Dew Point 27 °F    
Average Humidity 46    
Maximum Humidity 82    
Minimum Humidity 11    
Precipitation  
Precipitation 0.00 in - - ()
Sea Level Pressure  
Sea Level Pressure 30.14 in    
Wind  
Wind Speed 11 mph (NW)    
Max Wind Speed 18 mph    
Max Gust Speed 28 mph    
Visibility 10 miles    
Events      
Averages and records for this station are not official NWS values.
T = Trace of Precipitation, MM = Missing Value Source: NWS Daily Summary

Daily Weather History Graph

Daily Weather History Graph

Search for Another Location

Airport or City:

Astronomy

Apr. 08, 2014 Rise Set
Actual Time 7:14 AM CDT 8:09 PM CDT
Civil Twilight 6:48 AM CDT 8:35 PM CDT
Nautical Twilight 6:16 AM CDT 9:07 PM CDT
Astronomical Twilight 5:43 AM CDT 9:40 PM CDT
Moon 2:10 PM CDT (4/8) 3:22 AM CDT (4/8)
Length of Visible Light 13h 47m
Length of Day
12h 54m
Waxing Gibbous, 63% of the Moon is Illuminated
Apr 8
Waxing Gibbous
Apr 15
Full
Apr 22
Last Quarter
Apr 29
New
May 6
First Quarter

Hourly Weather History & Observations

Time (CDT) Temp. Windchill Dew Point Humidity Pressure Visibility Wind Dir Wind Speed Gust Speed Precip Events Conditions
12:52 AM 36.0 °F 28.0 °F 30.0 °F 79% 30.13 in 10.0 mi NW 11.5 mph - N/A   Clear
1:52 AM 35.1 °F 27.4 °F 28.9 °F 78% 30.13 in 10.0 mi NW 10.4 mph - N/A   Clear
2:52 AM 33.1 °F 27.7 °F 28.0 °F 82% 30.12 in 10.0 mi NNW 5.8 mph - N/A   Clear
3:52 AM 36.0 °F 27.1 °F 30.0 °F 79% 30.13 in 10.0 mi WNW 13.8 mph - N/A   Clear
4:52 AM 36.0 °F 28.0 °F 28.9 °F 76% 30.13 in 10.0 mi West 11.5 mph - N/A   Overcast
5:52 AM 33.1 °F 24.4 °F 27.0 °F 78% 30.16 in 10.0 mi West 11.5 mph - N/A   Overcast
6:52 AM 33.1 °F 24.9 °F 26.1 °F 75% 30.16 in 10.0 mi WNW 10.4 mph - N/A   Partly Cloudy
7:52 AM 33.8 °F 26.4 °F 26.6 °F 75% 30.16 in 10.0 mi WNW 9.2 mph - N/A   Clear
8:52 AM 44.1 °F 39.0 °F 28.9 °F 55% 30.17 in 10.0 mi WNW 9.2 mph - N/A   Clear
9:52 AM 51.1 °F - 28.9 °F 43% 30.18 in 10.0 mi WNW 6.9 mph - N/A   Clear
10:52 AM 54.0 °F - 25.0 °F 33% 30.18 in 10.0 mi WNW 8.1 mph - N/A   Clear
11:52 AM 57.9 °F - 24.1 °F 27% 30.18 in 10.0 mi WNW 5.8 mph - N/A   Clear
12:52 PM 62.1 °F - 25.0 °F 24% 30.16 in 10.0 mi North 15.0 mph 21.9 mph N/A   Clear
1:52 PM 63.0 °F - 24.1 °F 23% 30.14 in 10.0 mi Variable 6.9 mph 20.7 mph N/A   Clear
2:52 PM 64.9 °F - 24.1 °F 21% 30.13 in 10.0 mi NNW 17.3 mph 27.6 mph N/A   Clear
3:52 PM 66.0 °F - 25.0 °F 21% 30.11 in 10.0 mi NNW 18.4 mph 27.6 mph N/A   Clear
4:52 PM 64.9 °F - 25.0 °F 22% 30.10 in 10.0 mi NW 11.5 mph 25.3 mph N/A   Clear
5:52 PM 66.0 °F - 26.1 °F 22% 30.10 in 10.0 mi North 10.4 mph - N/A   Clear
6:52 PM 64.0 °F - 28.9 °F 27% 30.10 in 10.0 mi NNE 10.4 mph - N/A   Clear
7:52 PM 54.0 °F - 30.9 °F 41% 30.12 in 10.0 mi East 8.1 mph - N/A   Clear
8:52 PM 48.9 °F - 28.0 °F 44% 30.12 in 10.0 mi ESE 8.1 mph - N/A   Clear
9:52 PM 46.0 °F 41.4 °F 26.1 °F 46% 30.13 in 10.0 mi ESE 9.2 mph - N/A   Clear
10:52 PM 46.0 °F 41.4 °F 26.1 °F 46% 30.12 in 10.0 mi SSE 9.2 mph - N/A   Clear
11:52 PM 45.0 °F 39.7 °F 26.1 °F 48% 30.10 in 10.0 mi South 10.4 mph - N/A   Clear